Tracking 29591 objects as of 19-Sep-2024
HD Live streaming from Space Station
objects crossing your sky now

SL-12 DEB

Track SL-12 DEB now!
10-day predictions


NORAD ID: 41560
Int'l Code: 2008-067J
Perigee: 729.6 km
Apogee: 18,839.7 km
Inclination: 65.4 °
Period: 340.6 minutes
Semi major axis: 16155 km
RCS: Unknown
Launch date: December 25, 2008
Source: Commonwealth of Independent States (former USSR) (CIS)
Launch site: TYURATAM MISSILE AND SPACE COMPLEX (TTMTR)

Note: This is SATELLITE DEBRIS
Your satellite tracking list
Your tracking list is empty




NASA's NSSDC Master Catalog

Two Line Element Set (TLE):
1 41560U 08067J   24263.33529512  .00000304  00000-0  33783-2 0  9997
2 41560  65.4471  39.9410 5604857 271.9669  28.3079  4.22781476130796
Source of the keplerian elements: AFSPC